EXS85BH LICJ-EGCC

Flight info

Callsign EXS85BH
Flight time 2h 49m
Altitude 38000
Route N0437F380 GIANO DCT RUGOX DCT MADKA DCT AJO DCT OMEDA DCT MERLU DCT PIGOS DCT IDAVO DCT BAGBI DCT SIZZA DCT LAULY DCT BRY DCT CLM DCT KOPOR DCT VESAN DCT RATUK DCT SOVAT L613 SANDY UN57 WELIN T420 ELVOS
Aircraft B738/M-SDFGIJ1RWYZ/LB1

Departure

Time 2026-05-05 20:25
Airport Falcone–Borsellino Airport (LICJ)

Arrival

Time 2026-05-05 23:14
Airport Manchester Airport (EGCC)
Time Latitude Longitude Altitude Speed Heading
2026-05-05 19:35 38.18566 13.10666 52 ft 0 kts 338°
2026-05-05 20:15 38.18555 13.10672 50 ft 4 kts 337°
2026-05-05 20:16 38.18532 13.10685 47 ft 2 kts 337°
2026-05-05 20:16 38.18511 13.10693 45 ft 4 kts 11°
2026-05-05 20:16 38.18492 13.10676 48 ft 4 kts 64°
2026-05-05 20:17 38.18499 13.10697 47 ft 0 kts 66°
2026-05-05 20:20 38.18504 13.10714 48 ft 5 kts 70°
2026-05-05 20:20 38.18498 13.10776 52 ft 10 kts 108°
2026-05-05 20:20 38.18476 13.10865 51 ft 10 kts 102°
2026-05-05 20:20 38.18446 13.10940 52 ft 10 kts 145°
2026-05-05 20:21 38.18431 13.11011 52 ft 10 kts 67°
2026-05-05 20:21 38.18458 13.11091 50 ft 11 kts 67°
2026-05-05 20:21 38.18489 13.11186 52 ft 13 kts 67°
2026-05-05 20:21 38.18526 13.11295 49 ft 14 kts 67°
2026-05-05 20:22 38.18567 13.11416 49 ft 16 kts 66°
2026-05-05 20:22 38.18609 13.11541 52 ft 14 kts 68°
2026-05-05 20:22 38.18612 13.11658 52 ft 13 kts 97°
2026-05-05 20:22 38.18600 13.11771 52 ft 13 kts 97°
2026-05-05 20:23 38.18578 13.11877 49 ft 12 kts 130°
2026-05-05 20:23 38.18520 13.11890 52 ft 6 kts 219°
2026-05-05 20:23 38.18512 13.11870 50 ft 0 kts 247°
2026-05-05 20:24 38.18497 13.11826 51 ft 22 kts 247°
2026-05-05 20:24 38.18341 13.11354 51 ft 92 kts 247°
2026-05-05 20:24 38.18006 13.10360 51 ft 150 kts 247°
2026-05-05 20:24 38.17713 13.09484 180 ft 168 kts 247°
2026-05-05 20:25 38.17260 13.08121 861 ft 168 kts 247°
2026-05-05 20:25 38.16802 13.06744 1502 ft 175 kts 245°
2026-05-05 20:25 38.16075 13.04645 1967 ft 209 kts 244°
2026-05-05 20:25 38.15726 13.03476 2296 ft 218 kts 255°
2026-05-05 20:26 38.15944 13.01527 2811 ft 235 kts 295°
2026-05-05 20:26 38.16832 12.99755 3415 ft 243 kts 301°
2026-05-05 20:26 38.17816 12.97945 3856 ft 259 kts 303°
2026-05-05 20:26 38.18888 12.95999 4387 ft 273 kts 303°
2026-05-05 20:27 38.19986 12.94012 5229 ft 275 kts 303°
2026-05-05 20:27 38.21106 12.92043 6112 ft 276 kts 310°
2026-05-05 20:27 38.22655 12.90597 6938 ft 279 kts 329°
2026-05-05 20:27 38.24370 12.89432 7723 ft 281 kts 330°
2026-05-05 20:28 38.26108 12.88264 8503 ft 284 kts 330°
2026-05-05 20:28 38.27856 12.87078 9304 ft 286 kts 329°
2026-05-05 20:28 38.29612 12.85871 10085 ft 288 kts 329°
2026-05-05 20:28 38.31404 12.84623 10507 ft 304 kts 328°
2026-05-05 20:29 38.33324 12.83272 10689 ft 326 kts 328°
2026-05-05 20:29 38.35349 12.81841 11146 ft 337 kts 328°
2026-05-05 20:29 38.37412 12.80379 11835 ft 340 kts 328°
2026-05-05 20:29 38.39487 12.78906 12602 ft 342 kts 328°
2026-05-05 20:30 38.41568 12.77425 13396 ft 344 kts 327°
2026-05-05 20:30 38.43671 12.75924 14125 ft 349 kts 327°
2026-05-05 20:30 38.45802 12.74401 14779 ft 353 kts 327°
2026-05-05 20:30 38.47928 12.72879 15465 ft 357 kts 327°
2026-05-05 20:31 38.50103 12.71322 16157 ft 360 kts 327°
2026-05-05 20:31 38.52301 12.69746 16829 ft 365 kts 327°
2026-05-05 20:31 38.54531 12.68146 17482 ft 369 kts 327°
2026-05-05 20:31 38.56779 12.66532 18158 ft 373 kts 327°
2026-05-05 20:32 38.59054 12.64898 18759 ft 377 kts 327°
2026-05-05 20:32 38.61348 12.63250 19376 ft 379 kts 327°
2026-05-05 20:32 38.63652 12.61594 19996 ft 381 kts 327°
2026-05-05 20:32 38.65977 12.59920 20594 ft 384 kts 327°
2026-05-05 20:33 38.68313 12.58238 21188 ft 387 kts 327°
2026-05-05 20:33 38.70664 12.56542 21795 ft 389 kts 326°
2026-05-05 20:33 38.73030 12.54836 22381 ft 391 kts 326°
2026-05-05 20:33 38.75410 12.53117 22947 ft 394 kts 326°
2026-05-05 20:34 38.77811 12.51381 23500 ft 397 kts 326°
2026-05-05 20:34 38.80221 12.49638 23960 ft 400 kts 326°
2026-05-05 20:34 38.82658 12.47875 24396 ft 403 kts 326°
2026-05-05 20:34 38.85110 12.46098 24823 ft 406 kts 326°
2026-05-05 20:35 38.87478 12.44119 25233 ft 405 kts 318°
2026-05-05 20:35 38.89563 12.41700 25654 ft 405 kts 313°
2026-05-05 20:35 38.91594 12.39172 26058 ft 409 kts 312°
2026-05-05 20:35 38.93636 12.36607 26423 ft 413 kts 311°
2026-05-05 20:36 38.95694 12.34022 26842 ft 415 kts 311°
2026-05-05 20:36 38.97769 12.31426 27239 ft 418 kts 312°
2026-05-05 20:36 38.99863 12.28815 27619 ft 421 kts 312°
2026-05-05 20:36 39.01974 12.26188 27989 ft 424 kts 312°
2026-05-05 20:37 39.04102 12.23545 28355 ft 427 kts 312°
2026-05-05 20:37 39.06241 12.20889 28719 ft 429 kts 312°
2026-05-05 20:37 39.08397 12.18213 29073 ft 432 kts 312°
2026-05-05 20:37 39.10566 12.15517 29414 ft 435 kts 312°
2026-05-05 20:38 39.12719 12.12840 29746 ft 437 kts 312°
2026-05-05 20:38 39.14909 12.10114 30072 ft 440 kts 312°
2026-05-05 20:38 39.17116 12.07364 30352 ft 442 kts 312°
2026-05-05 20:38 39.19331 12.04601 30663 ft 444 kts 312°
2026-05-05 20:39 39.21550 12.01833 31023 ft 444 kts 312°
2026-05-05 20:39 39.23764 11.99068 31424 ft 442 kts 312°
2026-05-05 20:39 39.25972 11.96308 31858 ft 440 kts 311°
2026-05-05 20:39 39.28162 11.93568 32264 ft 438 kts 311°
2026-05-05 20:40 39.30350 11.90826 32622 ft 438 kts 311°
2026-05-05 20:40 39.32531 11.88091 32986 ft 437 kts 311°
2026-05-05 20:40 39.34712 11.85352 33371 ft 436 kts 311°
2026-05-05 20:40 39.36883 11.82625 33753 ft 434 kts 311°
2026-05-05 20:41 39.39045 11.79906 34117 ft 433 kts 311°
2026-05-05 20:41 39.41205 11.77186 34406 ft 433 kts 311°
2026-05-05 20:41 39.43362 11.74467 34691 ft 432 kts 311°
2026-05-05 20:41 39.45511 11.71757 35031 ft 431 kts 311°
2026-05-05 20:42 39.47651 11.69057 35371 ft 429 kts 311°
2026-05-05 20:42 39.49782 11.66364 35651 ft 429 kts 311°
2026-05-05 20:42 39.51920 11.63660 35882 ft 429 kts 311°
2026-05-05 20:42 39.54058 11.60952 36144 ft 429 kts 311°
2026-05-05 20:43 39.56192 11.58249 36437 ft 428 kts 311°
2026-05-05 20:43 39.58316 11.55556 36709 ft 427 kts 311°
2026-05-05 20:43 39.60439 11.52861 36932 ft 427 kts 311°
2026-05-05 20:43 39.62534 11.50199 37178 ft 427 kts 311°
2026-05-05 20:44 39.64679 11.47472 37452 ft 426 kts 311°
2026-05-05 20:44 39.66794 11.44780 37675 ft 426 kts 311°
2026-05-05 20:44 39.68880 11.42122 37904 ft 425 kts 311°
2026-05-05 20:44 39.70996 11.39425 38037 ft 428 kts 310°
2026-05-05 20:45 39.75251 11.33990 38014 ft 428 kts 310°
2026-05-05 20:45 39.79480 11.28584 38033 ft 424 kts 310°
2026-05-05 20:46 39.83672 11.23214 38020 ft 422 kts 310°
2026-05-05 20:46 39.87846 11.17855 38028 ft 421 kts 310°
2026-05-05 20:47 39.92009 11.12501 38029 ft 421 kts 310°
2026-05-05 20:47 39.96174 11.07133 38035 ft 422 kts 310°
2026-05-05 20:48 40.00350 11.01742 38028 ft 423 kts 310°
2026-05-05 20:48 40.04539 10.96323 38024 ft 425 kts 310°
2026-05-05 20:49 40.08742 10.90880 38021 ft 426 kts 310°
2026-05-05 20:49 40.12960 10.85405 38014 ft 428 kts 310°
2026-05-05 20:50 40.17190 10.79906 38014 ft 429 kts 310°
2026-05-05 20:50 40.21420 10.74396 38014 ft 429 kts 310°
2026-05-05 20:51 40.25650 10.68876 38008 ft 429 kts 310°
2026-05-05 20:51 40.29876 10.63351 38007 ft 429 kts 310°
2026-05-05 20:52 40.34097 10.57822 38006 ft 428 kts 310°
2026-05-05 20:52 40.38283 10.52329 38008 ft 428 kts 309°
2026-05-05 20:53 40.42486 10.46802 38001 ft 427 kts 309°
2026-05-05 20:53 40.46678 10.41280 37996 ft 426 kts 309°
2026-05-05 20:54 40.50854 10.35768 37995 ft 425 kts 309°
2026-05-05 20:54 40.55017 10.30264 37993 ft 424 kts 309°
2026-05-05 20:55 40.59169 10.24763 37991 ft 423 kts 309°
2026-05-05 20:55 40.63283 10.19303 38009 ft 422 kts 309°
2026-05-05 20:56 40.67414 10.13810 37991 ft 422 kts 309°
2026-05-05 20:56 40.71540 10.08311 37990 ft 422 kts 308°
2026-05-05 20:57 40.75675 10.02793 37983 ft 422 kts 308°
2026-05-05 20:57 40.79794 9.97284 37978 ft 422 kts 308°
2026-05-05 20:58 40.83917 9.91761 37981 ft 422 kts 308°
2026-05-05 20:58 40.88042 9.86223 37983 ft 423 kts 308°
2026-05-05 20:59 40.92142 9.80709 38000 ft 423 kts 308°
2026-05-05 20:59 40.96267 9.75151 37987 ft 423 kts 308°
2026-05-05 21:00 41.00386 9.69592 37979 ft 423 kts 308°
2026-05-05 21:00 41.04498 9.64031 37989 ft 421 kts 308°
2026-05-05 21:01 41.08588 9.58489 37979 ft 420 kts 308°
2026-05-05 21:01 41.12666 9.52951 37976 ft 419 kts 308°
2026-05-05 21:02 41.16728 9.47425 37973 ft 417 kts 308°
2026-05-05 21:02 41.20753 9.41939 37967 ft 417 kts 307°
2026-05-05 21:03 41.24795 9.36425 37961 ft 416 kts 308°
2026-05-05 21:03 41.29179 9.31314 37967 ft 420 kts 314°
2026-05-05 21:04 41.33689 9.26372 37958 ft 419 kts 313°
2026-05-05 21:04 41.38146 9.21401 37962 ft 418 kts 313°
2026-05-05 21:05 41.42599 9.16418 37977 ft 417 kts 313°
2026-05-05 21:05 41.47018 9.11464 37967 ft 418 kts 313°
2026-05-05 21:06 41.51463 9.06471 38003 ft 418 kts 312°
2026-05-05 21:06 41.55915 9.01463 38000 ft 419 kts 312°
2026-05-05 21:07 41.60373 8.96438 37978 ft 419 kts 312°
2026-05-05 21:07 41.64834 8.91401 37996 ft 419 kts 312°
2026-05-05 21:08 41.69290 8.86360 37962 ft 420 kts 312°
2026-05-05 21:08 41.73725 8.81334 37964 ft 420 kts 312°
2026-05-05 21:09 41.78339 8.76476 37955 ft 429 kts 322°
2026-05-05 21:09 41.83599 8.72615 37963 ft 432 kts 324°
2026-05-05 21:10 41.88894 8.68807 37970 ft 432 kts 323°
2026-05-05 21:10 41.94185 8.64945 37963 ft 432 kts 323°
2026-05-05 21:11 41.99465 8.61054 37966 ft 433 kts 323°
2026-05-05 21:11 42.04742 8.57151 37967 ft 433 kts 323°
2026-05-05 21:12 42.10011 8.53247 37983 ft 432 kts 322°
2026-05-05 21:12 42.15256 8.49353 37967 ft 433 kts 322°
2026-05-05 21:13 42.20524 8.45436 37953 ft 432 kts 322°
2026-05-05 21:13 42.25790 8.41512 37953 ft 432 kts 322°
2026-05-05 21:14 42.31051 8.37585 37961 ft 432 kts 322°
2026-05-05 21:14 42.36318 8.33647 37968 ft 432 kts 322°
2026-05-05 21:15 42.40698 8.30368 37954 ft 433 kts 322°
2026-05-05 21:15 42.45972 8.26414 37948 ft 434 kts 322°
2026-05-05 21:16 42.52114 8.21798 37946 ft 434 kts 322°
2026-05-05 21:16 42.56548 8.18458 37941 ft 435 kts 322°
2026-05-05 21:17 42.61812 8.14487 37940 ft 436 kts 322°
2026-05-05 21:17 42.67114 8.10478 37941 ft 436 kts 322°
2026-05-05 21:18 42.72420 8.06460 37940 ft 437 kts 322°
2026-05-05 21:18 42.77735 8.02425 37940 ft 438 kts 322°
2026-05-05 21:19 42.83065 7.98372 37936 ft 439 kts 322°
2026-05-05 21:19 42.88404 7.94304 37941 ft 440 kts 322°
2026-05-05 21:20 42.93760 7.90215 37942 ft 441 kts 322°
2026-05-05 21:20 42.99129 7.86107 37929 ft 443 kts 322°
2026-05-05 21:21 43.04505 7.81986 37934 ft 444 kts 322°
2026-05-05 21:21 43.09892 7.77846 37944 ft 445 kts 322°
2026-05-05 21:22 43.14889 7.73990 37929 ft 445 kts 322°
2026-05-05 21:22 43.20256 7.69838 37937 ft 447 kts 322°
2026-05-05 21:23 43.25635 7.65669 37939 ft 447 kts 322°
2026-05-05 21:23 43.30977 7.61521 37934 ft 448 kts 322°
2026-05-05 21:24 43.36401 7.57301 37951 ft 448 kts 323°
2026-05-05 21:24 43.41826 7.53070 37947 ft 449 kts 323°
2026-05-05 21:25 43.47253 7.48830 37941 ft 448 kts 323°
2026-05-05 21:25 43.52676 7.44583 37944 ft 448 kts 323°
2026-05-05 21:26 43.58086 7.40337 37938 ft 447 kts 323°
2026-05-05 21:26 43.63476 7.36079 37960 ft 446 kts 322°
2026-05-05 21:27 43.68692 7.31602 37979 ft 443 kts 320°
2026-05-05 21:27 43.73885 7.27001 37966 ft 443 kts 320°
2026-05-05 21:28 43.79084 7.22413 37982 ft 444 kts 320°
2026-05-05 21:28 43.84309 7.17828 37963 ft 445 kts 320°
2026-05-05 21:29 43.89556 7.13228 37961 ft 446 kts 321°
2026-05-05 21:29 43.94805 7.08618 37956 ft 447 kts 320°
2026-05-05 21:30 44.00064 7.03987 37958 ft 448 kts 320°
2026-05-05 21:30 44.05298 6.99371 37968 ft 449 kts 321°
2026-05-05 21:31 44.10567 6.94713 37969 ft 448 kts 321°
2026-05-05 21:31 44.15829 6.90051 37985 ft 448 kts 321°
2026-05-05 21:32 44.21067 6.85402 38005 ft 444 kts 321°
2026-05-05 21:32 44.26289 6.80755 37982 ft 445 kts 321°
2026-05-05 21:33 44.31469 6.76135 37979 ft 445 kts 321°
2026-05-05 21:33 44.36684 6.71474 37988 ft 446 kts 321°
2026-05-05 21:34 44.41925 6.66778 37984 ft 448 kts 321°
2026-05-05 21:34 44.47163 6.62075 37988 ft 451 kts 321°
2026-05-05 21:35 44.52453 6.57317 37985 ft 452 kts 321°
2026-05-05 21:35 44.57758 6.52536 37990 ft 454 kts 321°
2026-05-05 21:36 44.63073 6.47735 37974 ft 454 kts 321°
2026-05-05 21:36 44.68387 6.42925 37984 ft 454 kts 321°
2026-05-05 21:37 44.73697 6.38108 37986 ft 454 kts 321°
2026-05-05 21:37 44.78994 6.33290 37998 ft 453 kts 321°
2026-05-05 21:38 44.84267 6.28483 37992 ft 454 kts 322°
2026-05-05 21:38 44.89579 6.23630 37988 ft 454 kts 322°
2026-05-05 21:39 44.94872 6.18785 37966 ft 454 kts 321°
2026-05-05 21:39 45.00172 6.13922 37975 ft 454 kts 321°
2026-05-05 21:40 45.05433 6.09083 37974 ft 454 kts 322°
2026-05-05 21:40 45.10724 6.04207 37958 ft 453 kts 322°
2026-05-05 21:41 45.16002 5.99332 37953 ft 452 kts 322°
2026-05-05 21:41 45.21252 5.94473 37958 ft 449 kts 322°
2026-05-05 21:42 45.26486 5.89615 37949 ft 449 kts 322°
2026-05-05 21:42 45.31705 5.84761 37935 ft 448 kts 322°
2026-05-05 21:43 45.36913 5.79907 37964 ft 447 kts 322°
2026-05-05 21:43 45.42086 5.75073 37950 ft 448 kts 322°
2026-05-05 21:44 45.47304 5.70187 37944 ft 449 kts 322°
2026-05-05 21:44 45.52534 5.65279 37945 ft 451 kts 322°
2026-05-05 21:45 45.57784 5.60341 37943 ft 453 kts 322°
2026-05-05 21:45 45.63056 5.55371 37939 ft 455 kts 322°
2026-05-05 21:46 45.68351 5.50369 37934 ft 457 kts 322°
2026-05-05 21:46 45.73661 5.45340 37947 ft 459 kts 322°
2026-05-05 21:47 45.78994 5.40278 37935 ft 460 kts 322°
2026-05-05 21:47 45.84300 5.35231 37937 ft 460 kts 322°
2026-05-05 21:48 45.89633 5.30146 37939 ft 460 kts 322°
2026-05-05 21:48 45.94962 5.25052 37928 ft 459 kts 322°
2026-05-05 21:49 46.00273 5.19964 37927 ft 457 kts 322°
2026-05-05 21:49 46.05555 5.14891 37938 ft 456 kts 322°
2026-05-05 21:50 46.10820 5.09823 37931 ft 454 kts 322°
2026-05-05 21:50 46.16035 5.04790 37927 ft 453 kts 322°
2026-05-05 21:51 46.21258 4.99739 37933 ft 451 kts 322°
2026-05-05 21:51 46.26606 4.94970 37927 ft 455 kts 332°
2026-05-05 21:52 46.35315 4.89482 37937 ft 455 kts 334°
2026-05-05 21:53 46.41125 4.85844 37921 ft 455 kts 333°
2026-05-05 21:53 46.46917 4.82132 37948 ft 455 kts 333°
2026-05-05 21:54 46.52671 4.78408 37939 ft 456 kts 333°
2026-05-05 21:54 46.58517 4.74616 37934 ft 458 kts 333°
2026-05-05 21:55 46.64304 4.70857 37928 ft 459 kts 333°
2026-05-05 21:55 46.70142 4.67057 37928 ft 460 kts 333°
2026-05-05 21:56 46.75996 4.63236 37930 ft 461 kts 333°
2026-05-05 21:56 46.81855 4.59405 37930 ft 462 kts 333°
2026-05-05 21:57 46.87733 4.55579 37929 ft 462 kts 334°
2026-05-05 21:57 46.93616 4.51752 37918 ft 463 kts 334°
2026-05-05 21:58 46.99497 4.47915 37931 ft 463 kts 334°
2026-05-05 21:58 47.05375 4.44068 37921 ft 462 kts 334°
2026-05-05 21:59 47.11208 4.40240 37923 ft 462 kts 334°
2026-05-05 21:59 47.17074 4.36380 37917 ft 461 kts 334°
2026-05-05 22:00 47.22927 4.32521 37906 ft 460 kts 334°
2026-05-05 22:00 47.28760 4.28665 37912 ft 459 kts 333°
2026-05-05 22:01 47.34589 4.24802 37908 ft 458 kts 334°
2026-05-05 22:01 47.40390 4.20948 37898 ft 458 kts 334°
2026-05-05 22:02 47.46153 4.17110 37898 ft 457 kts 333°
2026-05-05 22:02 47.51943 4.13245 37901 ft 457 kts 334°
2026-05-05 22:03 47.57728 4.09379 37893 ft 456 kts 334°
2026-05-05 22:03 47.63500 4.05523 37888 ft 456 kts 334°
2026-05-05 22:04 47.69075 4.01790 37891 ft 456 kts 334°
2026-05-05 22:04 47.74844 3.97917 37883 ft 456 kts 334°
2026-05-05 22:05 47.80608 3.94036 37880 ft 456 kts 334°
2026-05-05 22:05 47.86345 3.90164 37882 ft 456 kts 334°
2026-05-05 22:06 47.91917 3.86394 37868 ft 457 kts 334°
2026-05-05 22:06 47.97637 3.82515 37872 ft 457 kts 334°
2026-05-05 22:07 48.03346 3.78633 37865 ft 457 kts 334°
2026-05-05 22:07 48.09017 3.74769 37859 ft 457 kts 334°
2026-05-05 22:08 48.14405 3.70862 37843 ft 456 kts 326°
2026-05-05 22:08 48.19057 3.65070 37856 ft 450 kts 310°
2026-05-05 22:09 48.23262 3.58105 37843 ft 450 kts 309°
2026-05-05 22:09 48.27417 3.51217 37844 ft 451 kts 310°
2026-05-05 22:10 48.31471 3.44591 37843 ft 451 kts 310°
2026-05-05 22:10 48.35557 3.37927 37846 ft 451 kts 310°
2026-05-05 22:11 48.39127 3.32218 37834 ft 452 kts 316°
2026-05-05 22:11 48.42470 3.28458 37845 ft 454 kts 328°
2026-05-05 22:11 48.45304 3.26338 37840 ft 456 kts 335°
2026-05-05 22:12 48.50217 3.23277 37834 ft 456 kts 336°
2026-05-05 22:12 48.56051 3.19677 37834 ft 456 kts 336°
2026-05-05 22:13 48.61895 3.15975 37829 ft 455 kts 335°
2026-05-05 22:13 48.67723 3.12231 37837 ft 455 kts 335°
2026-05-05 22:14 48.73550 3.08476 37838 ft 455 kts 335°
2026-05-05 22:14 48.79372 3.04719 37849 ft 454 kts 335°
2026-05-05 22:15 48.85176 3.00907 37831 ft 454 kts 332°
2026-05-05 22:15 48.90643 2.96286 37842 ft 453 kts 328°
2026-05-05 22:16 48.96052 2.91394 37845 ft 452 kts 328°
2026-05-05 22:16 49.01487 2.86533 37840 ft 452 kts 328°
2026-05-05 22:17 49.06926 2.81725 37849 ft 452 kts 328°
2026-05-05 22:17 49.12384 2.76911 37838 ft 453 kts 328°
2026-05-05 22:18 49.17636 2.72266 37840 ft 453 kts 328°
2026-05-05 22:18 49.22722 2.67754 37853 ft 453 kts 328°
2026-05-05 22:19 49.27726 2.63303 37865 ft 454 kts 328°
2026-05-05 22:19 49.32591 2.58966 37861 ft 455 kts 328°
2026-05-05 22:20 49.37254 2.54799 37863 ft 455 kts 328°
2026-05-05 22:20 49.41801 2.50728 37863 ft 455 kts 328°
2026-05-05 22:21 49.46609 2.46413 37867 ft 456 kts 328°
2026-05-05 22:21 49.52155 2.41727 37851 ft 457 kts 337°
2026-05-05 22:22 49.58227 2.38799 37863 ft 458 kts 343°
2026-05-05 22:22 49.64358 2.36149 37864 ft 457 kts 343°
2026-05-05 22:23 49.70478 2.33438 37874 ft 457 kts 343°
2026-05-05 22:23 49.75570 2.31130 37875 ft 457 kts 342°
2026-05-05 22:24 49.80342 2.28948 37874 ft 456 kts 342°
2026-05-05 22:24 49.85166 2.26735 37878 ft 456 kts 342°
2026-05-05 22:25 49.90913 2.24094 37880 ft 455 kts 342°
2026-05-05 22:25 49.96449 2.21546 37872 ft 454 kts 342°
2026-05-05 22:26 50.01911 2.19026 37886 ft 453 kts 342°
2026-05-05 22:26 50.07959 2.16230 37884 ft 453 kts 342°
2026-05-05 22:27 50.13985 2.13436 37896 ft 451 kts 342°
2026-05-05 22:27 50.20005 2.10637 37884 ft 451 kts 342°
2026-05-05 22:28 50.26009 2.07837 37899 ft 450 kts 342°
2026-05-05 22:28 50.31730 2.05164 37898 ft 450 kts 342°
2026-05-05 22:29 50.36965 2.02100 37902 ft 447 kts 330°
2026-05-05 22:29 50.41497 1.97034 37923 ft 444 kts 317°
2026-05-05 22:30 50.45855 1.90963 37909 ft 445 kts 316°
2026-05-05 22:30 50.49783 1.85488 37917 ft 446 kts 317°
2026-05-05 22:31 50.53566 1.80278 37916 ft 447 kts 317°
2026-05-05 22:31 50.57268 1.75203 37917 ft 447 kts 318°
2026-05-05 22:32 50.60872 1.70255 37909 ft 448 kts 317°
2026-05-05 22:32 50.64431 1.65357 37930 ft 448 kts 317°
2026-05-05 22:33 50.68156 1.60214 37921 ft 449 kts 317°
2026-05-05 22:33 50.71960 1.54948 37934 ft 449 kts 317°
2026-05-05 22:34 50.75817 1.49599 37926 ft 449 kts 317°
2026-05-05 22:34 50.79946 1.43862 37945 ft 448 kts 317°
2026-05-05 22:35 50.84593 1.37395 37942 ft 449 kts 317°
2026-05-05 22:35 50.89283 1.30850 37965 ft 448 kts 317°
2026-05-05 22:36 50.93929 1.24348 37957 ft 448 kts 317°
2026-05-05 22:36 50.98595 1.17799 37961 ft 448 kts 316°
2026-05-05 22:37 51.03253 1.11244 37964 ft 447 kts 316°
2026-05-05 22:37 51.07886 1.04654 37966 ft 446 kts 315°
2026-05-05 22:38 51.12331 0.97796 37963 ft 445 kts 313°
2026-05-05 22:38 51.16726 0.90863 38010 ft 444 kts 314°
2026-05-05 22:39 51.21096 0.84006 38023 ft 443 kts 314°
2026-05-05 22:39 51.25498 0.77123 38041 ft 442 kts 314°
2026-05-05 22:40 51.29891 0.70247 38056 ft 442 kts 314°
2026-05-05 22:40 51.34274 0.63367 37974 ft 441 kts 314°
2026-05-05 22:41 51.38643 0.56487 37966 ft 440 kts 314°
2026-05-05 22:41 51.42996 0.49613 37971 ft 440 kts 314°
2026-05-05 22:42 51.47322 0.42762 37976 ft 439 kts 314°
2026-05-05 22:42 51.51665 0.35864 37984 ft 439 kts 314°
2026-05-05 22:43 51.55999 0.28961 37990 ft 439 kts 314°
2026-05-05 22:43 51.60324 0.22053 37997 ft 438 kts 313°
2026-05-05 22:44 51.64651 0.15123 37990 ft 438 kts 313°
2026-05-05 22:44 51.68927 0.08154 37988 ft 437 kts 313°
2026-05-05 22:45 51.73166 0.01165 37989 ft 437 kts 313°
2026-05-05 22:45 51.77417 -0.05858 38040 ft 437 kts 313°
2026-05-05 22:46 51.81631 -0.12828 38041 ft 437 kts 312°
2026-05-05 22:46 51.85876 -0.19866 37980 ft 436 kts 312°
2026-05-05 22:47 51.90105 -0.26898 38001 ft 436 kts 312°
2026-05-05 22:47 51.92224 -0.30429 37785 ft 439 kts 312°
2026-05-05 22:47 51.94355 -0.33987 37325 ft 438 kts 312°
2026-05-05 22:47 51.96474 -0.37527 36784 ft 436 kts 312°
2026-05-05 22:48 51.98583 -0.41057 36258 ft 435 kts 312°
2026-05-05 22:48 52.00687 -0.44583 35693 ft 435 kts 312°
2026-05-05 22:48 52.02796 -0.48124 35101 ft 437 kts 312°
2026-05-05 22:48 52.04882 -0.51631 34523 ft 438 kts 311°
2026-05-05 22:49 52.07026 -0.55241 33860 ft 440 kts 311°
2026-05-05 22:49 52.09130 -0.58787 33153 ft 441 kts 311°
2026-05-05 22:49 52.11256 -0.62376 32483 ft 441 kts 311°
2026-05-05 22:49 52.13381 -0.65968 31816 ft 441 kts 311°
2026-05-05 22:50 52.15507 -0.69569 31260 ft 439 kts 310°
2026-05-05 22:50 52.17609 -0.73132 30784 ft 435 kts 310°
2026-05-05 22:50 52.19693 -0.76669 30305 ft 431 kts 310°
2026-05-05 22:50 52.21763 -0.80189 29799 ft 428 kts 310°
2026-05-05 22:51 52.23820 -0.83658 29257 ft 424 kts 312°
2026-05-05 22:51 52.26081 -0.86734 28766 ft 424 kts 322°
2026-05-05 22:51 52.28578 -0.89259 28305 ft 421 kts 326°
2026-05-05 22:51 52.31093 -0.91680 27790 ft 417 kts 326°
2026-05-05 22:52 52.33579 -0.94074 27321 ft 413 kts 326°
2026-05-05 22:52 52.36034 -0.96467 26837 ft 409 kts 326°
2026-05-05 22:52 52.38462 -0.98864 26381 ft 405 kts 326°
2026-05-05 22:52 52.40861 -1.01252 25908 ft 402 kts 326°
2026-05-05 22:53 52.43206 -1.03595 25453 ft 398 kts 326°
2026-05-05 22:53 52.45564 -1.05954 24994 ft 395 kts 326°
2026-05-05 22:53 52.47902 -1.08295 24538 ft 392 kts 326°
2026-05-05 22:53 52.50216 -1.10623 24089 ft 389 kts 326°
2026-05-05 22:54 52.52508 -1.12947 23649 ft 386 kts 326°
2026-05-05 22:54 52.54791 -1.15267 23117 ft 384 kts 326°
2026-05-05 22:54 52.57056 -1.17567 22616 ft 381 kts 326°
2026-05-05 22:54 52.59299 -1.19837 22164 ft 377 kts 326°
2026-05-05 22:55 52.61520 -1.22085 21696 ft 373 kts 326°
2026-05-05 22:55 52.63724 -1.24318 21254 ft 370 kts 326°
2026-05-05 22:55 52.65905 -1.26531 20807 ft 367 kts 326°
2026-05-05 22:55 52.68074 -1.28735 20368 ft 364 kts 326°
2026-05-05 22:56 52.70227 -1.30926 19933 ft 362 kts 326°
2026-05-05 22:56 52.72363 -1.33098 19519 ft 361 kts 326°
2026-05-05 22:56 52.74503 -1.35276 19128 ft 361 kts 326°
2026-05-05 22:56 52.76640 -1.37453 18723 ft 362 kts 326°
2026-05-05 22:57 52.78780 -1.39634 18289 ft 361 kts 326°
2026-05-05 22:57 52.80879 -1.41777 17812 ft 358 kts 326°
2026-05-05 22:57 52.82994 -1.43938 17363 ft 355 kts 326°
2026-05-05 22:57 52.85088 -1.46080 16932 ft 352 kts 326°
2026-05-05 22:58 52.87161 -1.48204 16524 ft 349 kts 326°
2026-05-05 22:58 52.89217 -1.50313 16110 ft 346 kts 326°
2026-05-05 22:58 52.91249 -1.52400 15717 ft 342 kts 326°
2026-05-05 22:58 52.93263 -1.54472 15313 ft 339 kts 326°
2026-05-05 22:59 52.95257 -1.56524 14924 ft 336 kts 326°
2026-05-05 22:59 52.97237 -1.58565 14534 ft 333 kts 326°
2026-05-05 22:59 52.99199 -1.60588 14146 ft 331 kts 326°
2026-05-05 22:59 53.01148 -1.62601 13759 ft 328 kts 326°
2026-05-05 23:00 53.04676 -1.67235 12930 ft 321 kts 311°
2026-05-05 23:00 53.06155 -1.69990 12544 ft 318 kts 310°
2026-05-05 23:00 53.07589 -1.72697 12172 ft 315 kts 310°
2026-05-05 23:01 53.09034 -1.75414 11800 ft 312 kts 311°
2026-05-05 23:01 53.10469 -1.78094 11434 ft 309 kts 311°
2026-05-05 23:01 53.11898 -1.80750 11075 ft 306 kts 311°
2026-05-05 23:01 53.13315 -1.83374 10715 ft 303 kts 311°
2026-05-05 23:02 53.14721 -1.85976 10364 ft 301 kts 312°
2026-05-05 23:02 53.16113 -1.88552 10018 ft 298 kts 312°
2026-05-05 23:02 53.17471 -1.91063 9991 ft 281 kts 312°
2026-05-05 23:02 53.18743 -1.93416 9758 ft 271 kts 312°
2026-05-05 23:03 53.20010 -1.95763 9362 ft 272 kts 312°
2026-05-05 23:03 53.21271 -1.98102 9054 ft 270 kts 312°
2026-05-05 23:03 53.22508 -2.00398 8733 ft 262 kts 312°
2026-05-05 23:03 53.23487 -2.02872 8443 ft 253 kts 290°
2026-05-05 23:04 53.23632 -2.05742 8149 ft 250 kts 262°
2026-05-05 23:04 53.23197 -2.08541 7768 ft 249 kts 256°
2026-05-05 23:04 53.22697 -2.11336 7399 ft 252 kts 255°
2026-05-05 23:04 53.22192 -2.14121 7222 ft 249 kts 255°
2026-05-05 23:05 53.21684 -2.16871 6982 ft 247 kts 255°
2026-05-05 23:05 53.21178 -2.19610 6734 ft 246 kts 255°
2026-05-05 23:05 53.20669 -2.22331 6507 ft 245 kts 255°
2026-05-05 23:05 53.20163 -2.25033 6218 ft 245 kts 255°
2026-05-05 23:06 53.19659 -2.27745 5939 ft 244 kts 255°
2026-05-05 23:06 53.19323 -2.29546 5746 ft 245 kts 255°
2026-05-05 23:06 53.18667 -2.33124 5440 ft 242 kts 255°
2026-05-05 23:06 53.18171 -2.35787 5225 ft 239 kts 255°
2026-05-05 23:07 53.17677 -2.38420 5018 ft 237 kts 255°
2026-05-05 23:07 53.17342 -2.40180 4871 ft 235 kts 255°
2026-05-05 23:07 53.16854 -2.42726 4662 ft 233 kts 255°
2026-05-05 23:07 53.16363 -2.45282 4447 ft 230 kts 255°
2026-05-05 23:08 53.15962 -2.47800 4252 ft 219 kts 269°
2026-05-05 23:08 53.16281 -2.50159 4036 ft 205 kts 304°
2026-05-05 23:08 53.17240 -2.51777 3907 ft 190 kts 324°
2026-05-05 23:08 53.18266 -2.53130 3765 ft 187 kts 324°
2026-05-05 23:09 53.19336 -2.54356 3635 ft 186 kts 340°
2026-05-05 23:10 53.23723 -2.50554 3182 ft 171 kts 49°
2026-05-05 23:10 53.24491 -2.49006 2996 ft 175 kts 51°
2026-05-05 23:10 53.25259 -2.47429 2767 ft 174 kts 51°
2026-05-05 23:10 53.26013 -2.45873 2531 ft 171 kts 52°
2026-05-05 23:11 53.26750 -2.44348 2296 ft 167 kts 52°
2026-05-05 23:11 53.27472 -2.42859 2073 ft 163 kts 53°
2026-05-05 23:11 53.28174 -2.41409 1844 ft 156 kts 52°
2026-05-05 23:11 53.28831 -2.40053 1641 ft 144 kts 52°
2026-05-05 23:12 53.29431 -2.38816 1459 ft 133 kts 52°
2026-05-05 23:12 53.30014 -2.37611 1264 ft 134 kts 53°
2026-05-05 23:12 53.30597 -2.36406 1063 ft 136 kts 51°
2026-05-05 23:12 53.31193 -2.35177 866 ft 136 kts 52°
2026-05-05 23:13 53.31788 -2.33936 672 ft 138 kts 52°
2026-05-05 23:13 53.32402 -2.32687 487 ft 140 kts 52°
2026-05-05 23:13 53.33016 -2.31425 322 ft 139 kts 52°
2026-05-05 23:13 53.33620 -2.30190 232 ft 129 kts 51°
2026-05-05 23:14 53.34045 -2.29311 230 ft 67 kts 51°
2026-05-05 23:14 53.34321 -2.28743 224 ft 59 kts 51°
2026-05-05 23:14 53.34560 -2.28247 229 ft 50 kts 51°
2026-05-05 23:14 53.34729 -2.27903 223 ft 25 kts 50°
2026-05-05 23:15 53.34835 -2.27820 224 ft 17 kts 349°
2026-05-05 23:15 53.34918 -2.27902 228 ft 11 kts 339°
2026-05-05 23:15 53.34980 -2.27845 228 ft 12 kts 51°
2026-05-05 23:15 53.35038 -2.27726 229 ft 14 kts 51°
2026-05-05 23:16 53.35099 -2.27599 233 ft 16 kts 51°
2026-05-05 23:16 53.35178 -2.27434 238 ft 19 kts 51°
2026-05-05 23:16 53.35258 -2.27272 238 ft 16 kts 51°
2026-05-05 23:16 53.35332 -2.27189 243 ft 13 kts
2026-05-05 23:17 53.35415 -2.27245 245 ft 15 kts 322°
2026-05-05 23:17 53.35498 -2.27358 247 ft 15 kts 321°
2026-05-05 23:17 53.35586 -2.27475 244 ft 17 kts 321°
2026-05-05 23:17 53.35677 -2.27596 246 ft 16 kts 326°
2026-05-05 23:18 53.35745 -2.27647 249 ft 16 kts 341°
2026-05-05 23:18 53.35820 -2.27726 251 ft 12 kts 340°
2026-05-05 23:18 53.35905 -2.27727 254 ft 13 kts
2026-05-05 23:18 53.36002 -2.27771 254 ft 16 kts 321°
2026-05-05 23:19 53.36087 -2.27885 254 ft 15 kts 322°
2026-05-05 23:19 53.36169 -2.27992 254 ft 14 kts 319°
2026-05-05 23:19 53.36237 -2.28079 254 ft 12 kts 348°
2026-05-05 23:19 53.36318 -2.28045 254 ft 12 kts 28°
2026-05-05 23:20 53.36379 -2.27955 254 ft 12 kts 43°
2026-05-05 23:20 53.36440 -2.27946 254 ft 7 kts 321°
2026-05-05 23:20 53.36476 -2.27996 254 ft 7 kts 326°
2026-05-05 23:20 53.36516 -2.28046 254 ft 6 kts 314°
2026-05-05 23:21 53.36511 -2.28083 254 ft 4 kts 230°
2026-05-05 23:21 53.36490 -2.28118 254 ft 5 kts 225°
2026-05-05 23:21 53.36472 -2.28148 254 ft 1 kts 225°